User: anonymous   Login
Location: Newark
(36.0000°N, 138.0000°E)
Time: 08:30:14
(UTC+00:00)
Language:

Tiangong 2 - Orbit

View from above orbital plane
View from above orbital plane
View from above satellite
View from above satellite

Ground track
Ground track

The orbit data is extracted from the following two-line orbital elements,

1 41765U 16057A   19111.01359047  .00003951  00000-0  49627-4 0  9994
2 41765  42.7836 307.9052 0008386 238.2588 253.6837 15.61288284148105
Epoch (UTC): 21 April 2019 00:19:34
Eccentricity: 0.0008386
inclination: 42.7836°
perigee height: 378 km
apogee height: 389 km
right ascension of ascending node: 307.9052°
argument of perigee: 238.2588°
revolutions per day: 15.61288284
mean anomaly at epoch: 253.6837°
orbit number at epoch: 14810

The dashed part of the orbit path shows where the satellite is in the earth's shadow,  

DLR